owner,sensor,date,latitude,longitude,vertical_datum,wind_speed,wind_to_direction,wind_speed_of_gust,qcFlag 
TCOON,ioos:station:TCOON:003:1,2019-12-01T00:18:00Z,26.8015,-97.4706,0.0,5.6,163.0,6.0,'11111222,11111222,11111222' 
TCOON,ioos:station:TCOON:003:1,2019-12-01T01:18:00Z,26.8015,-97.4706,0.0,7.8,174.0,9.0,'11111222,11111222,11111222' 
TCOON,ioos:station:TCOON:003:1,2019-12-01T02:18:00Z,26.8015,-97.4706,0.0,6.5,172.0,7.4,'11111222,11111222,11111222' 
TCOON,ioos:station:TCOON:003:1,2019-12-01T03:18:00Z,26.8015,-97.4706,0.0,4.5,166.0,5.4,'11111222,11111222,11111222' 
TCOON,ioos:station:TCOON:003:1,2019-12-01T04:18:00Z,26.8015,-97.4706,0.0,4.9,180.0,5.6,'11111222,11111222,11111222' 
TCOON,ioos:station:TCOON:003:1,2019-12-01T05:18:00Z,26.8015,-97.4706,0.0,4.6,177.0,5.2,'11111222,11111222,11111222' 
TCOON,ioos:station:TCOON:003:1,2019-12-01T06:18:00Z,26.8015,-97.4706,0.0,3.3,180.0,4.3,'11111222,11111222,11111222' 
TCOON,ioos:station:TCOON:003:1,2019-12-01T07:18:00Z,26.8015,-97.4706,0.0,0.5,172.0,0.9,'11111222,11111222,11111222' 
TCOON,ioos:station:TCOON:003:1,2019-12-01T08:18:00Z,26.8015,-97.4706,0.0,2.0,321.0,2.2,'11111222,11111222,11111222' 
TCOON,ioos:station:TCOON:003:1,2019-12-01T09:18:00Z,26.8015,-97.4706,0.0,3.6,5.0,4.3,'11111222,11111222,11111222' 
TCOON,ioos:station:TCOON:003:1,2019-12-01T10:18:00Z,26.8015,-97.4706,0.0,5.1,11.0,5.5,'11111222,11111222,11111222' 
TCOON,ioos:station:TCOON:003:1,2019-12-01T11:18:00Z,26.8015,-97.4706,0.0,15.4,28.0,17.5,'11111222,11111222,11111222' 
TCOON,ioos:station:TCOON:003:1,2019-12-01T12:18:00Z,26.8015,-97.4706,0.0,11.7,20.0,15.0,'11111222,11111222,11111222' 
TCOON,ioos:station:TCOON:003:1,2019-12-01T13:18:00Z,26.8015,-97.4706,0.0,11.5,16.0,13.7,'11111222,11111222,11111222' 
TCOON,ioos:station:TCOON:003:1,2019-12-01T14:18:00Z,26.8015,-97.4706,0.0,11.1,14.0,12.8,'11111222,11111222,11111222' 
TCOON,ioos:station:TCOON:003:1,2019-12-01T15:18:00Z,26.8015,-97.4706,0.0,8.9,10.0,10.6,'11111222,11111222,11111222' 
TCOON,ioos:station:TCOON:003:1,2019-12-01T16:18:00Z,26.8015,-97.4706,0.0,8.8,3.0,10.4,'11111222,11111222,11111222' 
TCOON,ioos:station:TCOON:003:1,2019-12-01T17:18:00Z,26.8015,-97.4706,0.0,8.9,10.0,11.0,'11111222,11111222,11111222' 
TCOON,ioos:station:TCOON:003:1,2019-12-01T18:18:00Z,26.8015,-97.4706,0.0,7.6,347.0,8.5,'11111222,11111222,11111222' 
TCOON,ioos:station:TCOON:003:1,2019-12-01T19:18:00Z,26.8015,-97.4706,0.0,8.2,356.0,9.2,'11111222,11111222,11111222' 
TCOON,ioos:station:TCOON:003:1,2019-12-01T20:18:00Z,26.8015,-97.4706,0.0,7.3,1.0,9.0,'11111222,11111222,11111222' 
TCOON,ioos:station:TCOON:003:1,2019-12-01T21:18:00Z,26.8015,-97.4706,0.0,7.0,8.0,7.7,'11111222,11111222,11111222' 
TCOON,ioos:station:TCOON:003:1,2019-12-01T22:18:00Z,26.8015,-97.4706,0.0,6.0,5.0,7.0,'11111222,11111222,11111222' 
TCOON,ioos:station:TCOON:003:1,2019-12-01T23:18:00Z,26.8015,-97.4706,0.0,4.9,16.0,6.1,'11111222,11111222,11111222' 
TCOON,ioos:station:TCOON:003:1,2019-12-02T00:18:00Z,26.8015,-97.4706,0.0,2.1,335.0,4.5,'11111222,11111222,11111222' 
TCOON,ioos:station:TCOON:003:1,2019-12-02T01:18:00Z,26.8015,-97.4706,0.0,2.9,348.0,3.5,'11111222,11111222,11111222' 
TCOON,ioos:station:TCOON:003:1,2019-12-02T02:18:00Z,26.8015,-97.4706,0.0,3.2,346.0,4.5,'11111222,11111222,11111222' 
TCOON,ioos:station:TCOON:003:1,2019-12-02T03:18:00Z,26.8015,-97.4706,0.0,2.3,322.0,3.2,'11111222,11111222,11111222' 
TCOON,ioos:station:TCOON:003:1,2019-12-02T04:18:00Z,26.8015,-97.4706,0.0,3.2,343.0,4.1,'11111222,11111222,11111222' 
TCOON,ioos:station:TCOON:003:1,2019-12-02T05:18:00Z,26.8015,-97.4706,0.0,4.1,356.0,5.1,'11111222,11111222,11111222' 
TCOON,ioos:station:TCOON:003:1,2019-12-02T06:18:00Z,26.8015,-97.4706,0.0,3.7,2.0,4.6,'11111222,11111222,11111222' 
TCOON,ioos:station:TCOON:003:1,2019-12-02T07:18:00Z,26.8015,-97.4706,0.0,3.7,348.0,4.5,'11111222,11111222,11111222' 
TCOON,ioos:station:TCOON:003:1,2019-12-02T08:18:00Z,26.8015,-97.4706,0.0,3.3,336.0,3.8,'11111222,11111222,11111222' 
TCOON,ioos:station:TCOON:003:1,2019-12-02T09:18:00Z,26.8015,-97.4706,0.0,5.1,359.0,6.4,'11111222,11111222,11111222' 
TCOON,ioos:station:TCOON:003:1,2019-12-02T10:18:00Z,26.8015,-97.4706,0.0,5.6,347.0,6.4,'11111222,11111222,11111222' 
TCOON,ioos:station:TCOON:003:1,2019-12-02T11:18:00Z,26.8015,-97.4706,0.0,7.1,356.0,8.4,'11111222,11111222,11111222' 
TCOON,ioos:station:TCOON:003:1,2019-12-02T12:18:00Z,26.8015,-97.4706,0.0,4.5,336.0,5.6,'11111222,11111222,11111222' 
TCOON,ioos:station:TCOON:003:1,2019-12-02T13:18:00Z,26.8015,-97.4706,0.0,3.4,322.0,4.0,'11111222,11111222,11111222' 
TCOON,ioos:station:TCOON:003:1,2019-12-02T14:18:00Z,26.8015,-97.4706,0.0,5.2,347.0,6.0,'11111222,11111222,11111222' 
TCOON,ioos:station:TCOON:003:1,2019-12-02T15:18:00Z,26.8015,-97.4706,0.0,6.6,4.0,7.8,'11111222,11111222,11111222' 
TCOON,ioos:station:TCOON:003:1,2019-12-02T16:18:00Z,26.8015,-97.4706,0.0,8.0,12.0,9.4,'11111222,11111222,11111222' 
TCOON,ioos:station:TCOON:003:1,2019-12-02T17:18:00Z,26.8015,-97.4706,0.0,7.5,19.0,8.7,'11111222,11111222,11111222' 
TCOON,ioos:station:TCOON:003:1,2019-12-02T18:18:00Z,26.8015,-97.4706,0.0,7.7,17.0,9.3,'11111222,11111222,11111222' 
TCOON,ioos:station:TCOON:003:1,2019-12-02T19:18:00Z,26.8015,-97.4706,0.0,7.2,27.0,8.6,'11111222,11111222,11111222' 
TCOON,ioos:station:TCOON:003:1,2019-12-02T20:18:00Z,26.8015,-97.4706,0.0,5.9,26.0,7.9,'11111222,11111222,11111222' 
TCOON,ioos:station:TCOON:003:1,2019-12-02T21:18:00Z,26.8015,-97.4706,0.0,5.2,34.0,6.2,'11111222,11111222,11111222' 
TCOON,ioos:station:TCOON:003:1,2019-12-02T22:18:00Z,26.8015,-97.4706,0.0,4.3,55.0,5.3,'11111222,11111222,11111222' 
TCOON,ioos:station:TCOON:003:1,2019-12-02T23:18:00Z,26.8015,-97.4706,0.0,3.8,74.0,4.4,'11111222,11111222,11111222' 
TCOON,ioos:station:TCOON:003:1,2019-12-03T00:18:00Z,26.8015,-97.4706,0.0,2.9,88.0,3.8,'11111222,11111222,11111222' 
TCOON,ioos:station:TCOON:003:1,2019-12-03T01:18:00Z,26.8015,-97.4706,0.0,1.7,93.0,1.9,'11111222,11111222,11111222' 
TCOON,ioos:station:TCOON:003:1,2019-12-03T02:18:00Z,26.8015,-97.4706,0.0,2.2,132.0,2.6,'11111222,11111222,11111222' 
TCOON,ioos:station:TCOON:003:1,2019-12-03T03:18:00Z,26.8015,-97.4706,0.0,1.9,140.0,2.2,'11111222,11111222,11111222' 
TCOON,ioos:station:TCOON:003:1,2019-12-03T04:18:00Z,26.8015,-97.4706,0.0,2.7,141.0,3.2,'11111222,11111222,11111222' 
TCOON,ioos:station:TCOON:003:1,2019-12-03T05:18:00Z,26.8015,-97.4706,0.0,3.5,149.0,3.8,'11111222,11111222,11111222' 
TCOON,ioos:station:TCOON:003:1,2019-12-03T06:18:00Z,26.8015,-97.4706,0.0,1.2,196.0,1.6,'11111222,11111222,11111222' 
TCOON,ioos:station:TCOON:003:1,2019-12-03T07:18:00Z,26.8015,-97.4706,0.0,1.4,200.0,1.8,'11111222,11111222,11111222' 
TCOON,ioos:station:TCOON:003:1,2019-12-03T08:18:00Z,26.8015,-97.4706,0.0,1.2,175.0,1.4,'11111222,11111222,11111222' 
TCOON,ioos:station:TCOON:003:1,2019-12-03T09:18:00Z,26.8015,-97.4706,0.0,1.0,184.0,1.3,'11111222,11111222,11111222' 
TCOON,ioos:station:TCOON:003:1,2019-12-03T10:18:00Z,26.8015,-97.4706,0.0,0.0,194.0,0.0,'11111222,11111222,11111222' 
TCOON,ioos:station:TCOON:003:1,2019-12-03T11:18:00Z,26.8015,-97.4706,0.0,1.2,97.0,1.3,'11111222,11111222,11111222' 
TCOON,ioos:station:TCOON:003:1,2019-12-03T12:18:00Z,26.8015,-97.4706,0.0,1.0,43.0,1.1,'11111222,11111222,11111222' 
TCOON,ioos:station:TCOON:003:1,2019-12-03T13:18:00Z,26.8015,-97.4706,0.0,0.6,0.0,0.7,'11111222,11111222,11111222' 
TCOON,ioos:station:TCOON:003:1,2019-12-03T14:18:00Z,26.8015,-97.4706,0.0,1.7,41.0,2.2,'11111222,11111222,11111222' 
TCOON,ioos:station:TCOON:003:1,2019-12-03T15:18:00Z,26.8015,-97.4706,0.0,1.6,307.0,1.7,'11111222,11111222,11111222' 
TCOON,ioos:station:TCOON:003:1,2019-12-03T16:18:00Z,26.8015,-97.4706,0.0,0.2,213.0,0.4,'11111222,11111222,11111222' 
TCOON,ioos:station:TCOON:003:1,2019-12-03T17:18:00Z,26.8015,-97.4706,0.0,0.8,190.0,1.0,'11111222,11111222,11111222' 
TCOON,ioos:station:TCOON:003:1,2019-12-03T18:18:00Z,26.8015,-97.4706,0.0,1.5,154.0,1.8,'11111222,11111222,11111222' 
TCOON,ioos:station:TCOON:003:1,2019-12-03T19:18:00Z,26.8015,-97.4706,0.0,3.1,138.0,4.2,'11111222,11111222,11111222' 
TCOON,ioos:station:TCOON:003:1,2019-12-03T20:18:00Z,26.8015,-97.4706,0.0,2.8,122.0,3.6,'11111222,11111222,11111222' 
TCOON,ioos:station:TCOON:003:1,2019-12-03T21:18:00Z,26.8015,-97.4706,0.0,5.4,118.0,6.1,'11111222,11111222,11111222' 
TCOON,ioos:station:TCOON:003:1,2019-12-03T22:24:00Z,26.8015,-97.4706,0.0,5.1,125.0,5.9,'11111222,11111222,11111222' 
TCOON,ioos:station:TCOON:003:1,2019-12-03T23:18:00Z,26.8015,-97.4706,0.0,4.9,133.0,5.3,'11111222,11111222,11111222' 
TCOON,ioos:station:TCOON:003:1,2019-12-04T00:18:00Z,26.8015,-97.4706,0.0,4.6,127.0,5.3,'11111222,11111222,11111222' 
TCOON,ioos:station:TCOON:003:1,2019-12-04T01:18:00Z,26.8015,-97.4706,0.0,3.5,138.0,4.4,'11111222,11111222,11111222' 
TCOON,ioos:station:TCOON:003:1,2019-12-04T02:18:00Z,26.8015,-97.4706,0.0,2.3,124.0,2.8,'11111222,11111222,11111222' 
TCOON,ioos:station:TCOON:003:1,2019-12-04T03:18:00Z,26.8015,-97.4706,0.0,1.6,151.0,1.7,'11111222,11111222,11111222' 
TCOON,ioos:station:TCOON:003:1,2019-12-04T04:18:00Z,26.8015,-97.4706,0.0,2.9,149.0,3.3,'11111222,11111222,11111222' 
TCOON,ioos:station:TCOON:003:1,2019-12-04T05:18:00Z,26.8015,-97.4706,0.0,1.6,183.0,3.0,'11111222,11111222,11111222' 
TCOON,ioos:station:TCOON:003:1,2019-12-04T06:18:00Z,26.8015,-97.4706,0.0,1.1,282.0,1.4,'11111222,11111222,11111222' 
TCOON,ioos:station:TCOON:003:1,2019-12-04T07:18:00Z,26.8015,-97.4706,0.0,0.7,256.0,0.8,'11111222,11111222,11111222' 
TCOON,ioos:station:TCOON:003:1,2019-12-04T08:18:00Z,26.8015,-97.4706,0.0,1.0,230.0,1.2,'11111222,11111222,11111222' 
TCOON,ioos:station:TCOON:003:1,2019-12-04T09:18:00Z,26.8015,-97.4706,0.0,1.1,186.0,1.3,'11111222,11111222,11111222' 
TCOON,ioos:station:TCOON:003:1,2019-12-04T10:18:00Z,26.8015,-97.4706,0.0,0.8,206.0,0.8,'11111222,11111222,11111222' 
TCOON,ioos:station:TCOON:003:1,2019-12-04T11:18:00Z,26.8015,-97.4706,0.0,1.7,327.0,1.8,'11111222,11111222,11111222' 
TCOON,ioos:station:TCOON:003:1,2019-12-04T12:18:00Z,26.8015,-97.4706,0.0,3.0,341.0,3.3,'11111222,11111222,11111222' 
TCOON,ioos:station:TCOON:003:1,2019-12-04T13:18:00Z,26.8015,-97.4706,0.0,2.0,335.0,2.6,'11111222,11111222,11111222' 
TCOON,ioos:station:TCOON:003:1,2019-12-04T14:18:00Z,26.8015,-97.4706,0.0,3.3,319.0,3.7,'11111222,11111222,11111222' 
TCOON,ioos:station:TCOON:003:1,2019-12-04T15:18:00Z,26.8015,-97.4706,0.0,2.7,323.0,3.1,'11111222,11111222,11111222' 
TCOON,ioos:station:TCOON:003:1,2019-12-04T16:18:00Z,26.8015,-97.4706,0.0,3.3,313.0,3.9,'11111222,11111222,11111222' 
TCOON,ioos:station:TCOON:003:1,2019-12-04T17:18:00Z,26.8015,-97.4706,0.0,1.6,317.0,2.0,'11111222,11111222,11111222' 
TCOON,ioos:station:TCOON:003:1,2019-12-04T18:18:00Z,26.8015,-97.4706,0.0,1.2,324.0,1.3,'11111222,11111222,11111222' 
TCOON,ioos:station:TCOON:003:1,2019-12-04T19:48:00Z,26.8015,-97.4706,0.0,1.5,164.0,2.5,'11111222,11111222,11111222' 
TCOON,ioos:station:TCOON:003:1,2019-12-04T20:18:00Z,26.8015,-97.4706,0.0,3.1,70.0,4.3,'11111222,11111222,11111222' 
 
DISCLAIMER: The Gulf of Mexico Coastal and Ocean Observing (GCOOS) Data Portal aggregates data from the regional data providers for the convenience of all data users. Data published on this website should not be used for navigation or certain other uses as we cannot guarantee data accuracy or availability. The data and delivery services are provided 'as is' without warranty of any kind. Data Source: Gulf of Mexico Coastal Ocean Observing System Data Portal (http://data.gcoos.org/) 
